Back to catalog

FENGYUN 1C DEB

AlivePO
NORAD 31165·DEBRIS·🇨🇳 China

Launched May 10, 1999 from Taiyuan Satellite Launch Center

Loading…

Next Passes (next 24 hours)

TLE

FreshSource: Space-Track

Epoch: Sep 12, 2026, 11:35 UTC

1 31165U 99025BHT 26255.48268610  .00003390  00000-0  49892-3 0  9996
2 31165  98.8641 345.4673 0066295 100.1279 321.2355 14.74694889 27756

Track FENGYUN 1C DEB in real time with AllMySat

Download on the App Store